Torna al catalogo

STARLINK-32360

AttivoComunicazioniVLEO
NORAD 61007·PAYLOAD·🇺🇸 United States

Lanciato Sep 5, 2024 da Cape Canaveral Space Force Station

Loading…

Prossimi Passaggi (prossime 24 ore)

TLE

AggiornatoSource: CelesTrak SupGP

Epoca: Sep 15, 2026, 02:37 UTC

1 61007C 24158T   26258.10951389 -.00046324  00000+0 -13683-2 0  2584
2 61007  53.1585 246.7357 0001501  81.0725 291.6291 15.34421098    15

Traccia STARLINK-32360 in tempo reale con AllMySat

Download on the App Store